Hlavní strana
METAR-TAF:

METAR-TAF

Letiště :

Delaware County Airport (Johnson Field)

Muncie, Indiana, Spojené státy americké

zeměpisná šířka: 40-14-03N, zeměpisná délka: 085-23-37W, výška: 285 m

Aktuální stav počasí

Zpráva byla vytvořena před 8 minutami, v 20:08 UTC
Jižní vítr 8 kt
Teplota 8°C
Vlhkost vzduchu 76%
Tlak 1009 hPa
Viditelnost: 16.1 km
Zataženo ve výšce 1500 ft

METAR: KMIE 242008Z 18008KT 10SM OVC015 08/04 A2981 RMK AO2 T00780039

Čas: 15:16 (20:16 UTC)


TAF: chybějící

Stav a předpovědi počasí z více než 4 000 letišť (zprávy METAR a TAF).

Červené a žluté tečky na mapě představují dostupné meteorologické stanice.

Když kurzor umístíte na tečku, zobrazí se název stanice.

Pak kliknutím zobrazíte stav a předpověď počasí.

Chcete-li změnit mapu, kliknutím na zelené tlačítko se znaménkem +mapu přiblížíte, kliknutím na zelené tlačítko se znaménkem – mapu oddálíte a kliknutím na zelené šipky přejdete na sousední mapy.


METAR-TAF: